Location: Campillo
(40.8621°N, 4.2488°W)
Time: 20:26:00
(UTC+00:00)

X-37B - Pass Details

Date: 01 August 2021
Orbit: 381 x 393 km, 45.0° (Epoch: 29 August)

Event Time Altitude Azimuth Distance (km) Brightness Sun altitude
Exits shadow 03:31:42 25° 160° (SSE) 815 2.0 -16.7°
Maximum altitude 03:32:06 26° 146° (SE) 798 2.0 -16.7°
Drops below altitude 10° 03:34:46 10° 88° (E) 1,396 4.1 -16.3°
Sets 03:37:02 0° 75° (ENE) 2,252 5.6 -16.0°
